sat.trackr.live / text

‹ back to catalog

FLOCK 4BE-5

NORAD 60559 · 2024-149CV

PAYLOAD ACTIVE UNKNOWN

§ Identity

Operator
Country
US
Launch date
2024-08-16
Launch site
AFWTR
Launch vehicle
Mass (kg)
RCS (m²)

Purposes: earth_obs

External: N2YO · Heavens-Above · Gunter

§ Orbital elements

Epoch: 2026-09-19T00:23:10.932000Z

Period
93.30 min
Inclination
97.3789°
Eccentricity
0.0002113
Mean motion
15.43387462 rev/d
Perigee alt
434.7 km
Apogee alt
437.6 km
Semi-major
6,814.3 km
B*
5.8691e-4
RAAN
347.0721°
Arg perigee
316.0049°
Mean anomaly
44.1030°
Rev number
11,673

§ Raw data

FLOCK 4BE-51 60559U 24149CV  26262.01609875  .00026171  00000+0  58691-3 0  99972 60559  97.3789 347.0721 0002113 316.0049  44.1030 15.43387462116737

JSON: /api/v1/satellites/60559 · /tle

For live sub-satellite position, see the globe view (requires WebGL).

§ Visibility from observer

Set your observer location to see the next 7 days of passes ≥ 10°. The values pass through the URL so the page stays shareable.

No JS? Fill the form by hand. The geolocation button needs JavaScript.